7 * 24
多渠道服务支持
STARLINK-11386 是 SpaceX Starlink 卫星互联网项目中的一颗低轨卫星,属于第二代星链卫星群。该卫星于2023年发射,旨在为全球用户提供高速、低延迟的互联网服务。它运行在约550公里高度的近地轨道,配备先进通信设备,支持宽带数据传输。Starlink 项目致力于构建覆盖全球的卫星网络,尤其服务于偏远和网络基础设施薄弱地区。STARLINK-11386 的部署有助于提升网络容量和连接稳定性,是 SpaceX 扩展其全球互联网覆盖计划的重要组成部分。
美国
(US)
| 数据来源 | 国际轨道数据 |
| 星历时间: | 2025-12-15T07:22:05+0800 19小时前 查看轨道信息 |
| 半长轴: | 6734.458km |
| 偏心率: | 0.000347 |
| 轨道倾角: | 43.002° |
| 近地点辐角 | 278.300° |
| 升交点赤经 | 193.348° |
| 平近点角 | 81.748° |
| 近地点: | 353.986km |
| 远地点: | 358.66km |
| 周期: | 91.667分钟 |
| 每日圈数: | 15.709011 |